Погода Каменск-Шахтинский

Хотите узнать прогноз погоды Каменск-Шахтинский? Тогда Вам сюда: Погода Каменск-Шахтинский

Поиск расширенной информации на нашем сайте:

Полезная информация:

Новости сайта



02.01.2020
Опубликован Долгосрочный прогноз погоды по городам России и ближнего зарубежья на январь 2020 года.
Карты: Прогноз на январь и февраль 2020 года, Сравнение прогнозируемой аномалии приземной температуры воздуха на январь 2020 года по разным моделям.




Погода Каменск-Шахтинский - сегодня

Время (UTC), дата Ветер
(°,м/с) 
Видим.   Явления Облачность Т
(°С)
Тd
(°С)
f(%) Тe
(°С)
Pmin
(гПа)
dP
(гПа)
Po
(мм)
O2
(г/м3)
Тmin Tmax R s Состояние
почвы
15 18.10.20 290 (З) 4{11}  20000 м    9/8 600 м кучево-дожд., средняя, верхняя 
[Cb cap|Ac As|Ci fib]
+18.7 +0.2 29 +19  1009.3  1.1  752  283    +26.2       
18 18.10.20 340 (С) 20000 м    10/4 600 м кучево-дожд., средняя, верхняя 
[Cb cap|Ac trans|Ci fib]
+15.7 +7.3 57 +17  1015.3  1.9  756  287           
21 18.10.20 310 (СЗ) 20000 м    10/0 средняя, верхняя 
[Ac trans|Ci fib]
+13.6 +5.5 58 +15  1016.8  1.4  757  290           
00 19.10.20 320 (СЗ) 20000 м    10/0 средняя, верхняя 
[Ac trans|Ci fib]
+10.3 +5.7 73 +11  1017.8  0.9  758  293           
03 19.10.20 290 (З) 20000 м    4/0 верхняя 
[Ci fib]
+9.2 +4.6 73 +10  1019.1  1.3  759  295  +9.2        сухая 
06 19.10.20 090 (В) 20000 м    8/0 средняя, верхняя 
[Ac trans|Ci]
+9.6 +4.2 69 +11  1020.2  1.1  760  295  +7.1         
09 19.10.20 350 (С) 20000 м    8/0 средняя, верхняя 
[Ac trans|Ci]
+15 +2.5 43 +16  1019.3  -0.8  759  290           
12 19.10.20 350 (С) 20000 м    10/5 600 м кучево-дожд., средняя 
[Cb cap|Ac As]
+15 +0.7 38 +16  1017.9  -1.4  758  290           
15 19.10.20 300 (СЗ) 20000 м    10/6 600 м кучево-дожд., средняя 
[Cb cap|Ac As]
+14.2 +1.3 41 +15  1018.6  0.6  759  290    +16.2       
18 19.10.20 300 (СЗ) 20000 м    10/5 600 м кучево-дожд., средняя 
[Cb cap|Ac As]
+12.2 +1.2 47 +13  1020  1.3  760  293           
21 19.10.20 300 (СЗ) 20000 м    4/0 средняя 
[Ac trans]
+10.7 +0.6 50 +12  1021.1  1.1  761  295           
00 20.10.20 270 (З) 20000 м    ясно 
+7.6 +1.2 64 +8  1022.6  1.4  762  298           
03 20.10.20 290 (З) 20000 м    ясно 
+4.4 +1.3 80 +4  1023.9  1.2  762  302  +4.4        сухая 
06 20.10.20 300 (СЗ) 20000 м    4/0 средняя 
[Ac trans]
+7.4 +2.8 73 +7  1024.8  763  299  +4.4         
09 20.10.20 280 (З) 20000 м    3/3 600 м 
[Cu med, cong]
+11.6 -1.2 41 +11  1024.7  763  295           
12 20.10.20 300 (СЗ) 4{10}  20000 м    ясно 
+13 -6.6 25 +13  1023.5  -1.1  762  294           
15 20.10.20 270 (З) 20000 м    8/0 средняя 
[Ac trans]
+11.2 -4.2 34 +11  1024  0.4  763  296    +13.4       
18 20.10.20 260 (З) 20000 м    3/0 средняя 
[Ac trans]
+8.4 -2.2 47 +7  1024.8  0.7  763  299           
21 20.10.20 тихо ()   20000 м    ясно 
+4.9 -1.5 63 +5  1026.2  1.3  764  303           
00 21.10.20 270 (З) 20000 м    ясно 
+4.6 -1.7 64 +4  1027.2  765  303           
03 21.10.20 290 (З) 20000 м    ясно 
+2.4 -1.7 74 +3  1028.1  0.9  766  306  +1.9        сухая 
06 21.10.20 290 (З) 20000 м    3/0 верхняя 
[Ci fib]
+5.4 -0.6 65 +4  1029.6  1.6  767  303  +0.8         
09 21.10.20 280 (З) 20000 м    3/1 1000 м средняя, верхняя 
[Cu hum|Ac trans|Ci fib]
+10.1 -1.7 44 +9  1029  -0.5  766  298           
12 21.10.20 280 (З) 20000 м    9/0 средняя, верхняя 
[Ac trans|Ci]
+11.9 -4.2 32 +12  1027.4  -1.5  765  296           
15 21.10.20 360 (С) 20000 м    9/0 средняя, верхняя 
[Ac trans|Ci fib]
+10.2 -3.7 37 +11  1026.8  -0.6  765  297    +12.1       
Время (UTC), дата Ветер
(°,м/с) 
Видим.   Явления Облачность Т
(°С)
Тd
(°С)
f(%) Тe
(°С)
Pmin
(гПа)
dP
(гПа)
Po
(мм)
O2
(г/м3)
Тmin Tmax R s Состояние
почвы

Для получения пояснительной информации подведите курсор к названию столбца.

ПОГОДА Каменск-Шахтинский - архив

Всё, что Вы хотите узнать о погоде Каменск-Шахтинский - удобно и подробно!

Выберите нужную дату (начиная с 1 января 2019* года) и нажмите кнопку "Найти".
Будут отображены архивные сводки погоды по пункту Каменск-Шахтинский, начиная с указанной даты.


Отображать данные в формате CSV (для использования в таблицах Excel)


Внимание! Наш архив погоды предназначен исключительно для личного некоммерческого использования в познавательных целях. Если Вам необходимы официальные справки о состоянии погоды (для производственных, юридических, коммерческих и т.п. целей), обращайтесь в органы Росгидромета.

*Примечание: данная дата относится к архиву по метеостанциям СССР (Россия, СНГ, Балтия).
Архив по метеостанциям Зарубежной Европы и Азии (кроме Китая) хранится 10 дней, по другим регионам земного шара (Китай, Африка, Америка, Австралия, Океания) - 1 день.

Каменск-Шахтинский - район местоположения метеостанции


Название, широта, долгота, высота метеостанции:
Каменск-Шахтинский 48.3°ш. 40.3°д. 51 м над ур. моря [Российская Федерация]

Дополнительная информация

В oтличие oт бoльшинства пoгoдных сайтoв мы публикуем пoдрoбную метеoинфoрмацию в детальнoм прoфессиoнальнoм фoрмате.

Характеристики температуры и влажнoсти вoздуха измеряются на высoте 2 м в тени вдали oт зданий и деревьев.
Скoрoсть ветра измеряется на высoте 10 м (на урoвне рoста челoвека скoрoсть ветра ниже в 1.5-2 раза). Если метеoстанция нахoдится в гoрoде или в лесу, тo скoрoсть ветра занижена на 2-4 м/с пo сравнению с oткрытым местoм. Скoрoсть ветра над акватoриями крупных рек и oзёр, а также на вершинах хoлмoв на 2-5 м/с выше, чем в oбычных услoвиях.
Атмoсфернoе давление в разных тoчках местнoсти мoжет значительнo oтличаться oт давления на метеoстанции, в зависимoсти oт услoвий рельефа (при пoдъёме на 10 м давление пoнижается примернo на 1 мм рт.ст.).